Location: ActonStarParty
(42.4766°N, 71.4538°W)
Time: 08:04:44
(UTC-04:00)

ATLAS 5 CENTAUR R/B - Visible Passes

Search period start: 23 August 2017 00:00
Search period end: 02 September 2017 00:00
Orbit: 310 x 14412 km, 60.9° (Epoch: 25 July)

Date Brightness Start Highest point End Pass type
(mag) Time Alt. Az. Time Alt. Az. Time Alt. Az.
23 Aug 9.4 01:04:02 10° NW 01:14:49 10° NW 01:26:19 10° WNW visible
23 Aug 8.1 17:52:10 10° NW 19:09:09 87° ENE 20:52:41 10° SSE visible
23 Aug 8.8 22:45:06 10° NW 23:40:55 28° WNW 00:52:24 10° WSW visible
24 Aug 8.3 20:48:43 10° NW 22:01:54 50° W 23:30:31 10° SW visible
25 Aug 8.1 18:55:22 10° NW 20:15:21 75° W 21:51:34 10° S visible
25 Aug 9.3 23:58:20 10° NW 00:31:06 15° WNW 01:10:50 10° WNW visible
26 Aug 8.2 17:02:56 10° NW 18:15:14 80° ENE 20:03:54 10° SSE visible
26 Aug 8.6 21:53:58 10° NW 22:55:44 34° WNW 00:14:28 10° WSW visible
27 Aug 8.3 19:58:55 10° NW 21:14:49 57° W 22:46:08 10° SSW visible
28 Aug 8.2 18:05:57 10° NW 19:25:04 83° WSW 21:04:17 10° S visible
28 Aug 9.1 23:03:00 10° NW 23:46:53 20° WNW 00:42:42 10° W visible
29 Aug 8.5 21:03:20 10° NW 22:09:59 41° WNW 23:34:02 10° SW visible
30 Aug 8.3 19:09:10 10° NW 20:26:54 65° W 22:00:39 10° SSW visible
31 Aug 8.2 17:16:30 10° NW 18:33:22 90° ENE 20:16:16 10° SSE visible
31 Aug 9.0 22:10:07 10° NW 23:02:09 26° WNW 00:09:39 10° WSW visible
01 Sep 8.5 20:13:00 10° NW 21:23:36 47° W 22:51:36 10° SW visible
